Location: York
(31.8935°S, 116.7682°E)
Time: 14:35:07
(UTC+08:00)

Envisat - Pass Details

Date: 16 May 2021
Orbit: 764 x 766 km, 98.1° (Epoch: 18 June)

Event Time Altitude Azimuth Distance (km) Brightness Sun altitude
Rises 05:47:13 0° 345° (NNW) 3,216 6.2 -14.5°
Reaches altitude 10° 05:49:51 10° 333° (NNW) 2,299 5.3 -13.9°
Maximum altitude 05:54:04 26° 276° (W) 1,472 3.9 -13.1°
Enters shadow 05:58:04 11° 221° (SW) 2,239 4.9 -12.2°
